Temp
3 5 5 5 6 7 10 10 10 11 10 11 10 11 11 11 11 11 12 14 15 15 16 16 16 16 15 15 16 15 16 16 15 15 15 15 15 15 15 15 15 15 15 15
4 5 5 4 7 8 10 11 11 12 11 11 10 10 12 10 10 11 13 14 15 16 16 16 16 16 16 16 16 16 16 15 15 15 15 15 15 15 15 15 15 15 14 15
5 6 7 7 8 9 10 11 11 10 10 10 10 10 11 10 11 12 14 16 16 16 16 16 16 16 16 16 16 16 16 16 15 16 15 15 15 15 14 14 15 15 15 14
6 7 8 7 9 11 10 11 12 11 9 9 10 10 10 12 11 11 13 14 15 16 16 16 16 16 16 17 16 16 16 16 16 15 15 15 15 15 15 15 15 15 14 14
5 8 8 8 9 10 10 11 12 11 10 8 9 8 11 11 11 11 11 14 16 16 16 16 16 16 17 17 17 16 16 16 15 15 15 15 15 15 15 15 15 14 14 14
6 6 6 6 8 9 10 10 10 9 8 8 10 9 11 10 11 12 12 14 16 16 16 16 16 16 16 16 16 16 17 16 15 16 15 15 15 15 15 15 15 15 15 14
6 5 6 7 9 9 10 8 8 8 7 9 10 10 11 12 12 12 11 15 16 16 16 16 16 16 16 16 16 16 16 16 16 16 15 15 15 15 15 15 15 15 15 14
4 6 7 7 7 7 8 8 8 8 7 8 9 9 11 12 13 14 14 15 16 16 16 16 16 16 16 16 15 16 15 15 15 15 16 15 15 14 15 15 15 14 14 14
4 5 8 8 7 7 8 7 10 7 6 6 8 10 12 12 11 12 13 14 14 15 15 16 16 16 16 16 15 15 15 15 15 14 14 13 14 14 14 14 13 13 13 13
7 4 7 8 8 9 10 10 8 4 7 10 8 9 10 11 12 12 12 13 14 14 14 15 16 16 16 15 15 15 14 14 14 14 13 14 13 13 14 13 12 12 12 11
7 6 6 7 6 8 8 9 8 7 6 8 8 8 8 10 9 9 10 12 13 13 14 14 14 14 14 14 14 14 14 14 13 13 13 14 12 13 12 12 11 11 12 12
7 6 5 7 8 9 9 9 8 5 7 4 5 8 9 10 9 10 11 13 13 13 13 13 13 13 13 13 13 13 13 13 12 12 12 11 13 11 12 12 11 11 11 11
8 4 6 6 7 8 8 9 9 7 5 4 5 8 10 10 10 12 12 12 13 13 13 13 13 13 13 13 12 12 11 11 11 10 11 11 10 11 11 12 11 10 9 9
8 5 5 4 6 6 8 8 9 7 3 7 6 9 11 10 10 10 12 12 13 13 13 13 13 13 12 12 11 11 11 10 10 10 10 10 10 9 9 9 11 10 9 9
6 5 3 7 8 6 7 8 8 5 7 6 10 8 9 10 9 11 11 12 12 13 13 13 13 13 14 13 12 11 10 9 9 9 9 9 9 8 8 9 9 9 8 7
6 4 4 5 7 7 7 7 7 7 7 7 7 7 10 11 10 10 10 11 11 11 12 12 12 12 12 12 12 11 10 9 8 8 8 8 8 8 8 8 8 8 7 7
6 5 4 4 6 6 6 7 7 7 7 8 7 9 9 9 9 10 10 10 11 11 11 11 11 11 11 11 11 11 10 9 8 8 8 8 8 7 7 8 8 7 6 5
5 6 4 2 4 3 7 8 9 7 8 7 7 8 8 8 10 10 10 9 9 9 9 9 10 10 10 11 10 10 9 8 8 8 8 8 8 7 7 7 7 6 5 5
5 5 5 4 3 5 8 8 9 9 8 8 7 8 8 8 9 9 9 9 9 9 9 9 9 9 10 10 11 10 9 9 8 7 7 7 7 7 7 6 6 5 4 4
5 4 4 2 4 6 7 8 8 8 5 8 8 8 8 8 5 5 9 8 9 8 8 8 9 8 9 10 10 10 9 9 9 8 8 7 7 6 6 5 5 4 4 3
4 4 3 4 4 4 6 7 8 7 6 8 9 9 9 6 7 9 9 9 8 8 8 8 8 8 8 9 10 10 9 9 9 8 7 6 6 6 5 4 4 4 4 3
4 3 3 3 3 3 7 8 7 7 8 8 7 8 8 9 9 9 8 8 8 8 7 7 7 6 7 8 9 10 10 9 9 7 6 6 6 5 5 4 4 3 4 3
5 4 4 4 4 6 7 6 6 6 6 6 5 6 6 6 7 7 8 8 7 7 7 7 6 6 6 8 8 8 8 8 7 6 6 5 5 4 4 4 3 3 3 2
4 4 4 5 5 4 6 6 5 5 5 5 5 5 5 5 5 6 7 7 7 7 6 6 6 6 6 6 6 6 6 6 6 6 5 5 4 4 4 3 3 2 2 1
3 4 3 3 4 5 5 6 4 3 3 3 3 3 3 3 3 4 5 7 7 6 6 6 6 6 6 6 6 6 5 5 5 5 4 4 4 3 3 3 2 2 1 0
3 3 2 2 4 3 3 3 1 1 1 1 1 1 2 2 2 2 3 6 6 6 5 5 5 5 5 5 6 5 5 5 5 4 4 3 3 3 2 2 1 1 1 0
Height
1469 1466 1466 1471 1469 1467 1465 1470 1477 1478 1482 1489 1492 1500 1497 1495 1498 1497 1503 1501 1502 1502 1504 1505 1506 1509 1514 1516 1518 1521 1523 1525 1528 1532 1537 1543 1543 1546 1549 1550 1552 1554 1555 1556
1467 1465 1469 1472 1468 1466 1464 1467 1472 1476 1480 1489 1499 1502 1499 1499 1498 1499 1500 1500 1501 1502 1502 1503 1505 1507 1509 1512 1513 1516 1519 1523 1525 1529 1532 1536 1539 1541 1545 1547 1548 1549 1551 1553
1462 1462 1464 1464 1466 1463 1463 1467 1469 1483 1490 1492 1498 1500 1494 1499 1503 1499 1498 1496 1498 1499 1500 1501 1503 1505 1506 1508 1510 1513 1516 1520 1521 1523 1527 1530 1534 1537 1540 1543 1544 1546 1548 1549
1462 1461 1460 1465 1462 1458 1466 1464 1469 1482 1495 1500 1499 1506 1496 1492 1493 1492 1488 1491 1493 1496 1497 1499 1501 1504 1505 1505 1508 1510 1514 1517 1518 1521 1523 1525 1526 1530 1535 1539 1542 1544 1547 1546
1469 1463 1466 1465 1466 1463 1471 1470 1474 1486 1498 1508 1506 1513 1493 1491 1492 1489 1486 1486 1487 1490 1493 1494 1497 1501 1503 1504 1506 1508 1509 1511 1515 1517 1521 1521 1525 1527 1530 1533 1535 1541 1542 1544
1467 1469 1470 1473 1470 1468 1472 1479 1486 1492 1503 1508 1501 1508 1487 1490 1481 1478 1480 1480 1482 1485 1487 1490 1493 1497 1499 1502 1504 1505 1506 1507 1511 1511 1516 1516 1519 1521 1525 1527 1531 1534 1536 1538
1474 1478 1476 1473 1472 1473 1473 1484 1498 1504 1508 1500 1494 1503 1483 1478 1472 1471 1475 1476 1479 1482 1484 1487 1489 1491 1494 1498 1501 1503 1504 1505 1508 1508 1512 1514 1515 1519 1523 1527 1529 1529 1531 1533
1486 1484 1482 1479 1481 1484 1485 1489 1496 1501 1508 1505 1497 1500 1487 1473 1471 1468 1471 1473 1476 1479 1482 1483 1484 1486 1489 1493 1497 1498 1500 1502 1503 1506 1508 1509 1512 1518 1518 1523 1527 1527 1529 1530
1489 1490 1483 1483 1485 1485 1487 1497 1485 1498 1507 1511 1501 1489 1477 1475 1474 1472 1474 1476 1477 1478 1478 1479 1479 1482 1486 1489 1492 1494 1496 1499 1500 1502 1502 1505 1508 1513 1517 1520 1523 1524 1525 1526
1478 1496 1486 1483 1483 1483 1481 1482 1493 1505 1506 1496 1500 1492 1482 1476 1474 1474 1475 1476 1476 1477 1477 1477 1477 1479 1483 1486 1489 1492 1493 1495 1496 1498 1500 1501 1509 1509 1514 1517 1520 1521 1521 1522
1476 1485 1493 1486 1490 1489 1487 1487 1489 1494 1501 1503 1505 1498 1481 1477 1475 1477 1477 1476 1475 1474 1477 1478 1477 1477 1481 1485 1487 1488 1490 1491 1493 1496 1498 1498 1506 1508 1514 1517 1520 1520 1518 1520
1482 1489 1498 1491 1488 1487 1487 1488 1491 1509 1502 1516 1511 1497 1474 1474 1474 1473 1475 1476 1476 1479 1480 1478 1477 1479 1481 1482 1483 1485 1487 1488 1491 1493 1496 1499 1499 1506 1509 1512 1514 1520 1516 1515
1483 1499 1500 1500 1493 1489 1489 1488 1489 1497 1506 1515 1516 1498 1476 1476 1477 1477 1479 1480 1480 1479 1479 1478 1478 1478 1478 1479 1480 1483 1485 1487 1489 1491 1493 1497 1500 1501 1504 1504 1509 1510 1511 1508
1481 1491 1497 1512 1500 1495 1491 1488 1488 1496 1515 1499 1503 1488 1482 1482 1483 1480 1480 1481 1479 1478 1478 1478 1477 1477 1477 1477 1479 1480 1482 1485 1487 1489 1490 1493 1497 1499 1501 1502 1501 1504 1505 1504
1484 1497 1500 1490 1488 1492 1490 1488 1489 1498 1491 1499 1483 1488 1482 1480 1480 1478 1477 1476 1476 1475 1475 1475 1475 1475 1474 1474 1475 1476 1477 1480 1483 1485 1488 1491 1494 1496 1497 1497 1498 1498 1499 1500
1485 1499 1497 1497 1487 1488 1489 1489 1490 1490 1488 1489 1485 1484 1478 1475 1475 1475 1474 1472 1472 1471 1472 1472 1472 1472 1471 1471 1472 1472 1472 1474 1478 1481 1484 1487 1490 1491 1493 1494 1494 1494 1495 1496
1487 1493 1500 1504 1493 1491 1497 1486 1486 1485 1483 1482 1484 1475 1473 1473 1472 1470 1470 1470 1469 1469 1469 1468 1468 1467 1467 1468 1468 1468 1468 1471 1473 1476 1479 1482 1485 1487 1489 1490 1491 1492 1493 1494
1489 1491 1498 1509 1503 1519 1488 1482 1479 1482 1480 1479 1478 1473 1472 1470 1469 1468 1468 1467 1466 1464 1463 1463 1462 1461 1461 1462 1462 1465 1465 1467 1470 1472 1475 1477 1480 1483 1486 1487 1487 1488 1489 1489
1486 1493 1499 1505 1511 1499 1482 1480 1480 1479 1479 1475 1474 1471 1470 1468 1467 1466 1466 1465 1463 1461 1459 1457 1456 1455 1455 1455 1456 1459 1461 1463 1466 1469 1471 1474 1476 1479 1480 1482 1483 1484 1484 1484
1489 1491 1498 1508 1504 1498 1483 1479 1479 1479 1488 1472 1472 1471 1469 1467 1472 1466 1463 1461 1459 1457 1455 1452 1450 1448 1448 1450 1451 1453 1456 1458 1460 1463 1467 1471 1473 1475 1476 1478 1479 1479 1479 1479
1495 1497 1501 1502 1502 1494 1480 1477 1478 1486 1486 1471 1470 1468 1467 1467 1465 1461 1459 1457 1454 1453 1450 1447 1444 1443 1442 1444 1445 1447 1449 1452 1456 1460 1464 1467 1469 1470 1473 1474 1474 1475 1474 1474
1491 1499 1499 1503 1503 1505 1478 1479 1481 1480 1474 1473 1471 1469 1466 1462 1459 1457 1456 1453 1451 1449 1446 1443 1441 1438 1437 1437 1438 1440 1442 1448 1453 1457 1459 1463 1465 1466 1467 1469 1470 1470 1469 1469
1488 1487 1489 1489 1488 1482 1479 1479 1480 1479 1475 1472 1469 1466 1463 1459 1456 1454 1451 1449 1447 1445 1443 1440 1438 1437 1436 1434 1434 1436 1439 1445 1449 1452 1455 1458 1461 1462 1463 1464 1465 1465 1465 1464
1483 1482 1484 1483 1482 1480 1478 1478 1478 1476 1472 1468 1465 1462 1459 1455 1451 1448 1446 1443 1442 1440 1439 1438 1437 1436 1435 1435 1435 1437 1440 1443 1446 1448 1451 1454 1456 1457 1458 1460 1460 1461 1460 1460
1483 1481 1483 1483 1479 1476 1475 1476 1474 1469 1467 1463 1460 1457 1454 1450 1446 1442 1439 1437 1436 1436 1436 1435 1435 1434 1434 1434 1435 1436 1438 1440 1443 1445 1447 1449 1451 1453 1454 1455 1456 1456 1456 1456
1479 1480 1485 1486 1480 1480 1477 1475 1471 1467 1464 1461 1457 1451 1448 1445 1440 1436 1433 1431 1430 1430 1431 1432 1432 1433 1433 1433 1434 1435 1437 1439 1440 1442 1444 1445 1447 1449 1450 1451 1451 1451 1452 1452
Wind_Speed
2 3 5 7 8 1 11 13 10 11 10 5 8 4 8 8 8 17 17 14 15 15 12 12 18 22 23 22 22 26 32 28 24 26 28 29 27 25 23 20 23 16 13 10
3 2 8 5 8 4 8 14 7 11 15 5 8 6 6 4 10 19 26 18 17 15 16 16 15 16 21 21 20 23 25 23 27 29 35 34 27 28 21 18 21 22 16 15
1 3 10 5 4 4 5 13 11 9 7 6 7 4 9 8 23 30 28 25 25 24 18 17 19 19 19 22 23 23 23 24 23 20 26 31 24 23 23 23 21 20 18 16
4 4 9 9 2 4 6 7 13 15 7 2 1 2 8 13 12 12 26 29 30 31 26 22 20 22 23 20 24 25 25 24 25 24 26 28 30 29 27 22 20 19 20 19
1 9 9 4 4 3 4 10 11 17 9 5 2 2 6 4 15 14 18 34 33 26 25 30 29 25 22 22 22 27 28 28 27 28 29 29 26 23 25 26 25 26 26 27
7 3 4 4 4 4 7 10 11 9 3 1 7 6 4 5 11 15 11 29 33 30 25 23 26 22 28 26 25 25 26 30 29 29 31 29 27 27 28 26 28 28 26 25
6 6 6 6 6 10 12 6 3 2 2 3 7 8 9 8 6 9 12 28 30 30 29 27 25 24 24 31 29 28 27 27 28 29 32 29 29 27 27 27 28 28 26 23
3 4 6 7 4 4 4 4 3 4 4 3 5 5 6 4 5 4 6 10 18 24 27 27 28 26 26 29 33 30 28 27 27 28 32 29 25 25 22 24 25 23 22 20
4 5 4 3 3 2 3 4 3 6 4 4 3 5 5 3 4 5 7 6 4 6 8 10 20 28 24 29 34 31 29 27 27 26 21 20 19 22 20 21 22 20 18 18
3 4 2 3 1 1 2 2 3 4 3 2 3 4 3 2 5 1 2 1 1 2 3 7 10 23 24 28 31 30 28 26 26 25 24 22 23 18 22 20 19 18 15 15
3 4 4 4 4 2 4 3 4 3 3 4 3 5 5 8 7 8 5 3 1 1 3 5 4 8 21 26 28 26 25 24 24 23 23 21 18 21 15 13 12 13 14 17
3 3 3 1 3 1 1 2 3 4 3 1 2 5 5 4 6 10 7 6 6 4 0 3 6 8 12 19 22 23 23 24 23 22 22 21 28 25 23 24 22 20 17 16
1 2 3 7 5 4 2 1 3 4 3 2 3 4 4 3 3 7 6 3 2 2 3 5 6 6 10 15 19 20 21 23 22 22 21 21 23 24 23 17 17 19 23 23
3 3 5 5 5 2 2 2 3 4 3 3 5 3 3 4 5 6 4 6 9 9 9 7 8 8 7 10 16 20 21 22 23 23 24 25 26 22 18 18 21 23 20 18
3 3 2 3 4 4 3 3 3 5 5 4 2 6 7 6 6 6 16 20 14 18 17 15 13 12 11 12 14 19 22 23 24 25 25 27 25 23 21 17 17 16 15 16
2 1 2 3 3 4 3 5 6 6 3 7 9 13 9 19 15 16 12 5 8 12 17 18 19 18 18 17 18 20 23 23 24 24 25 25 25 20 17 16 14 13 15 17
2 3 2 3 4 5 5 5 4 3 3 4 7 9 6 6 9 15 12 7 9 11 14 16 17 19 23 24 23 23 23 22 23 22 21 22 21 19 17 15 15 15 16 17
4 3 2 1 4 2 5 3 3 5 6 5 8 10 8 7 6 4 6 7 8 9 12 15 17 20 19 18 26 23 22 22 23 22 22 21 21 20 18 17 15 16 16 16
2 4 2 2 2 5 1 2 0 1 5 1 3 4 3 5 4 6 5 7 14 18 19 21 21 20 19 18 18 24 23 22 23 24 25 24 23 20 18 17 16 16 15 16
4 5 3 2 2 4 4 3 2 2 4 4 2 3 3 6 4 4 10 15 17 17 19 20 20 19 18 17 17 25 25 26 24 25 25 23 22 20 18 16 16 16 15 15
2 2 4 2 2 6 5 4 1 1 5 4 5 8 9 4 9 16 18 19 18 19 17 18 17 17 18 17 20 25 30 28 24 22 21 22 22 19 17 16 16 16 15 15
5 5 3 2 2 5 1 1 3 4 9 12 19 19 19 20 19 19 19 21 19 18 16 15 13 12 13 15 20 26 30 28 24 20 20 21 20 19 18 17 16 16 14 14
1 4 3 6 4 2 7 3 12 16 16 18 22 22 21 20 20 22 21 20 19 16 13 11 9 8 7 6 6 14 24 28 23 21 19 19 19 18 17 16 15 15 14 13
2 3 1 2 1 4 8 6 23 20 22 25 26 24 23 24 27 29 25 21 21 16 12 8 5 6 9 8 8 9 13 16 16 16 17 18 18 17 16 16 15 16 14 12
4 2 1 4 5 17 3 24 25 27 21 24 26 25 26 25 30 29 31 24 21 17 12 8 6 5 4 5 8 10 12 13 14 14 15 16 16 16 15 15 15 14 13 12
2 3 3 4 3 6 16 21 22 19 25 26 27 29 31 29 30 30 30 22 19 18 16 13 10 7 6 6 5 7 10 11 12 14 15 16 15 15 15 15 14 14 13 12
Wind_Direction
280 161 191 152 234 331 155 151 140 144 162 113 127 199 278 306 308 290 259 199 196 189 189 194 204 207 203 211 212 212 222 221 214 206 212 218 214 213 221 226 234 225 229 232
226 186 146 190 261 289 164 145 126 130 141 93 135 243 202 292 275 257 246 202 201 206 207 200 206 214 217 214 212 211 210 210 215 221 222 222 217 217 218 207 206 221 217 228
205 122 144 163 217 204 105 139 122 109 145 25 131 271 238 183 232 246 244 231 225 221 219 218 216 219 222 223 224 218 216 215 214 218 209 211 212 215 216 219 223 223 218 220
16 326 141 183 197 100 88 124 138 131 127 92 191 278 227 230 230 230 237 235 235 233 233 232 229 223 217 224 226 227 223 220 219 214 208 216 209 210 214 214 225 227 233 230
80 108 149 57 36 26 107 128 136 137 120 144 153 74 255 201 226 237 236 240 243 242 236 241 237 232 232 224 223 229 229 224 222 219 222 219 217 217 213 216 220 227 230 241
48 9 46 3 24 54 129 93 80 69 62 155 188 200 261 184 214 222 233 237 239 241 242 242 243 248 238 233 227 229 235 233 225 225 228 225 227 221 221 222 223 226 232 239
21 21 324 11 47 30 114 83 103 153 143 200 154 184 261 268 249 207 209 226 235 239 239 242 239 233 233 229 226 228 231 237 235 234 234 231 231 230 231 233 230 229 232 238
77 56 7 342 47 126 66 118 163 143 173 160 127 221 260 266 256 186 211 233 235 238 241 245 247 248 241 233 229 228 230 233 239 241 237 228 227 237 230 237 239 237 239 244
105 46 330 71 71 163 233 173 217 103 30 73 211 274 285 51 78 115 124 135 169 224 242 259 250 241 241 230 227 227 229 233 234 235 231 222 224 222 233 232 232 233 238 246
165 86 325 307 359 223 168 234 40 14 119 199 311 300 250 251 206 124 96 145 185 203 258 273 267 234 234 225 224 226 229 231 228 224 217 211 218 218 220 228 234 237 252 259
65 63 314 11 20 21 6 19 45 107 107 152 161 258 214 214 183 167 182 177 189 292 284 271 277 236 228 225 225 231 234 233 230 225 219 211 215 215 232 247 266 273 282 281
19 103 79 108 290 248 128 69 82 108 298 40 143 277 345 152 177 147 151 119 95 94 1 289 278 251 232 229 230 228 230 231 229 226 221 214 222 233 238 245 245 254 257 261
354 39 62 347 353 8 9 282 108 102 69 231 121 272 353 8 231 184 184 211 246 266 299 310 295 269 240 233 235 235 235 233 227 221 219 214 208 205 205 214 255 272 270 279
112 105 146 172 210 180 289 260 171 123 119 190 215 280 341 282 276 330 333 322 303 275 271 275 282 284 262 243 241 245 244 239 233 228 223 221 217 205 219 243 252 262 262 263
87 96 96 208 191 138 206 254 214 191 200 168 269 212 241 248 250 264 308 313 292 273 262 253 259 264 267 264 253 248 244 242 238 235 231 226 215 249 250 245 243 247 255 264
34 154 103 11 353 196 258 245 233 246 226 252 264 271 243 263 264 276 279 275 290 267 262 263 260 259 258 268 269 259 246 238 236 234 231 231 236 227 226 232 242 258 265 270
97 123 77 284 359 360 331 273 221 259 237 208 262 261 277 260 269 281 286 266 274 275 273 272 272 272 270 263 260 256 249 238 230 224 220 219 220 223 230 241 250 256 263 267
128 93 74 229 35 23 240 275 186 199 256 265 281 283 284 264 261 250 284 293 302 306 296 287 285 275 266 268 257 251 245 233 226 223 221 223 224 227 236 245 252 257 263 269
73 124 110 117 171 281 338 303 63 94 281 306 287 344 3 349 317 280 271 293 308 309 304 298 293 285 267 259 254 239 234 231 229 228 227 226 226 231 238 247 253 261 267 267
69 73 119 134 135 234 228 269 194 100 288 246 237 272 299 347 356 264 313 310 308 307 303 296 291 278 266 252 248 235 232 229 228 228 229 231 231 235 242 248 257 267 275 267
79 42 172 175 235 284 244 253 104 160 250 300 296 291 282 237 248 294 300 304 303 304 302 301 297 282 266 254 242 236 233 233 235 231 230 231 232 234 242 248 256 265 271 266
170 155 199 113 170 286 293 334 182 302 323 315 326 311 288 278 278 284 288 290 290 295 297 299 297 289 282 264 243 235 233 231 230 227 229 230 230 233 239 247 252 263 265 267
183 185 188 178 212 26 15 332 8 342 336 326 321 318 321 313 301 297 292 286 278 281 283 289 289 274 276 273 234 231 228 222 217 221 226 230 231 234 239 244 254 263 266 269
318 14 125 13 117 339 307 298 338 332 318 316 312 312 306 306 309 299 298 285 272 267 263 260 257 249 235 217 195 190 204 213 224 226 225 228 232 237 241 246 256 261 264 266
216 10 76 282 323 343 159 323 324 322 315 312 310 310 309 303 288 298 292 281 267 259 237 224 226 209 200 198 200 200 203 206 212 218 225 230 234 240 245 253 258 260 262 261
207 178 138 232 276 270 284 312 315 304 313 315 317 311 305 302 301 289 293 278 262 244 235 225 223 229 225 191 212 216 209 220 225 229 232 234 236 242 245 251 255 259 260 251